Terminal Aerodrome Forecast
Issued by NWS Chicago, IL

Home | Current Version | Previous Version | Text Only | Print | Product List | Glossary Off
Versions: 1 2 3 4 5 6 7 8 9 10 11 12 13 14 15 16 17 18 19 20 21 22 23 24 25 26

657
FTUS43 KLOT 200520
TAFRFD
TAF
KRFD 200520Z 2006/2106 VRB06KT P6SM SCT100 BKN250
     FM200900 19009KT P6SM VCTS SCT060CB BKN100
      TEMPO 2010/2013 35015G25KT 2SM +TSRA SCT020 OVC040CB
     FM201400 26014G20KT P6SM SCT040 BKN250
     FM201700 28010KT P6SM BKN040
      TEMPO 2020/2023 36012KT 3SM TSRA BKN040CB
     FM202300 01009KT P6SM SCT040 BKN150
     FM210200 14005KT P6SM SCT150=

USA.gov is the U.S. government's official web portal to all federal, state and local government web resources and services.